Voltar ao catálogo

KUIPER-00236

AtivoComunicaçõesLEO
NORAD 68582·PAYLOAD·🇺🇸 United States

Lançado Apr 4, 2026 de Cape Canaveral Space Force Station

Loading…

Próximas Passagens (próximas 24 horas)

TLE

AtualizadoSource: CelesTrak SupGP

Época: Sep 14, 2026, 20:45 UTC

1 68582C 26072K   26257.86504630 -.00725190  00000+0 -95159-1 0  2572
2 68582  51.9016 108.9413 0000999  85.3259 215.1491 14.80555801    19

Acompanhe KUIPER-00236 em tempo real com AllMySat

Download on the App Store